Погода в Салте

Россия / Республика Дагестан     42°23′44″N   47°04′20″E
темп.,
°C
ветер,
м/с
пор.,
м/с
влажн.,
%
обл.,
%
осадки,
мм/ч
давл.,
гПа
погр.,
м
25 июня, сб
сб2500:00+14зсз118581 0.1 101011
03:00+12юз118290 0.1 101011
06:00+14ссз11730 0.0 101082
09:00+19св216217 0.0 1009637
12:00+22св326525 0.1 1008970
15:00+19ссв337998 0.8 1008443
18:00+18ссв3384100 0.9 1009585
21:00+16ююв0090100 1.4 101116
26 июня, вс
вс2600:00+15ююз2292100 0.1 101129
03:00+13ююз1187100 1.1 101011
06:00+15вюв118091 0.0 101083
09:00+18в2274100 0.0 1009625
12:00+21св3367100 0.1 10071150
15:00+20ссв3373100 0.9 1007917
18:00+18ссв2382100 2.6 1008334
21:00+16ююв118891 3.4 101113
27 июня, пн
пн2700:00+14сз1191100 0.6 101113
03:00+13юз22920 0.6 101113
06:00+15з11795 0.0 101195
09:00+20с22640 0.0 1010677
12:00+23св32586 0.0 10101306
15:00+22св336456 0.1 10111255
18:00+19св228058 0.2 1012303
21:00+16сз2291100 0.3 101314
28 июня, вт
вт2800:00+15зсз1189100 0.0 101211
03:00+14сз118798 0.0 101112
06:00+16з11780 0.0 1011104
09:00+20с22580 0.0 1009724
12:00+22св33511 0.0 10091110
15:00+22ссв335234 0.0 10101406
18:00+20св336558 0.1 1011223
21:00+13св119132 0.8 101512
29 июня, ср
ср2900:00+14ю1190100 0.2 101514
03:00+13юв009079 0.3 101410
06:00+15юз118439 0.0 1014129
09:00+18всв115916 0.0 1013981
12:00+21св3252100 0.0 10121736
15:00+19св2261100 0.1 1013933
18:00+19св226755 0.0 1013167
21:00+15ссв229199 0.1 101562